Location: Arezzo
(43.4170°N, 11.8830°E)
Time: 04:04:55
(UTC+02:00)

STARLINK-2704 - Pass Details

Date: 24 June 2021
Orbit: 546 x 548 km, 53.1° (Epoch: 23 July)

Event Time Altitude Azimuth Distance (km) Brightness Sun altitude
Exits shadow 03:51:52 20° 187° (S) 1,283 5.0 -14.1°
Maximum altitude 03:54:03 34° 135° (SE) 901 4.6 -13.8°
Drops below altitude 10° 03:57:48 10° 69° (ENE) 1,816 7.2 -13.4°
Sets 04:00:10 0° 61° (ENE) 2,712 8.5 -13.2°
